E23JWE-1 Weather Reports


time (UTC)temp
F
wind
direction
speed
knots
gust
knots
rain 1hr
in
rain 24hr
in
rain mn
in
humidity
%
barometer
mb
20260503004425 87 0 0.0 0.0 0.00 0.00 0.00 94 1009.0
20260503001359 88 0 0.0 0.0 0.00 0.00 0.00 93 1009.0
20260502234333 87 0 0.0 0.0 0.00 0.00 0.00 94 1009.0
20260502231307 87 0 0.0 0.0 0.00 0.00 0.00 93 1009.0
20260502224242 87 0 0.0 0.0 0.00 0.00 0.00 95 1008.0
20260502221216 84 0 0.0 0.0 0.00 0.00 0.00 99 1008.0
20260502214150 86 0 0.0 0.0 0.00 0.00 0.00 99 1008.0
20260502211125 84 0 0.0 0.0 0.00 0.00 0.00 99 1008.0
20260502204059 86 0 0.0 0.0 0.00 0.00 0.00 99 1008.0
20260502201036 88 0 0.0 0.0 0.00 0.00 0.00 99 1007.0
20260502194008 87 0 0.0 0.0 0.00 0.00 0.00 99 1008.0
20260502190942 88 0 0.0 0.0 0.00 0.00 0.00 99 1008.0
20260502183917 88 0 0.0 0.0 0.00 0.00 0.00 98 1008.0
20260502180851 88 0 0.0 0.0 0.00 0.00 0.00 98 1008.0
20260502163735 88 0 0.0 0.0 0.00 0.00 0.00 88 1010.0
20260502160709 87 0 0.0 0.0 0.00 0.00 0.00 89 1010.0
20260502150618 88 0 0.0 0.0 0.00 0.00 0.00 84 1009.0
20260502130435 89 0 0.0 0.0 0.00 0.00 0.00 90 1008.0
20260502123409 90 0 0.0 0.0 0.00 0.00 0.00 84 1008.0
20260502120344 88 0 0.0 0.0 0.00 0.00 0.00 99 1007.0
20260502113318 88 0 0.0 0.0 0.00 0.00 0.00 99 1006.0
20260502110253 89 0 0.0 0.0 0.00 0.00 0.00 97 1006.0
20260502103227 91 0 0.0 0.0 0.00 0.00 0.00 86 1005.0
20260502100202 91 0 0.0 0.0 0.00 0.00 0.00 85 1005.0
20260502090111 93 0 0.0 0.0 0.00 0.00 0.00 74 1006.0
20260502065928 93 0 0.0 0.0 0.00 0.00 0.00 77 1007.0
20260502062903 92 0 0.0 0.0 0.00 0.00 0.00 80 1008.0
20260502055837 92 0 0.0 0.0 0.00 0.00 0.00 82 1009.0
20260502052811 92 0 0.0 0.0 0.00 0.00 0.00 85 1009.0
20260502045745 91 0 0.0 0.0 0.00 0.00 0.00 86 1009.0
20260502042720 91 0 0.0 0.0 0.00 0.00 0.00 88 1010.0
20260502035654 90 0 0.0 0.0 0.00 0.00 0.00 94 1010.0
20260502032629 90 0 0.0 0.0 0.00 0.00 0.00 91 1010.0
20260502025603 90 0 0.0 0.0 0.00 0.00 0.00 95 1010.0
20260502022540 89 0 0.0 0.0 0.00 0.00 0.00 95 1010.0
20260502015514 90 0 0.0 0.0 0.00 0.00 0.00 97 1010.0
20260502012447 89 0 0.0 0.0 0.00 0.00 0.00 99 1009.0